Location: Moscow
(55.7500°N, 37.5830°E)
Time: 20:20:46
(UTC+03:00)

Transit 2A Rocket - Pass Details

Date: 05 December 2021
Orbit: 584 x 917 km, 66.7° (Epoch: 23 January)

Event Time Altitude Azimuth Distance (km) Brightness Sun altitude
Rises 07:01:49 0° 174° (S) 3,355 8.7 -12.8°
Reaches altitude 10° 07:04:38 10° 160° (SSE) 2,476 8.2 -12.4°
Maximum altitude 07:09:06 24° 109° (ESE) 1,764 7.9 -11.8°
Drops below altitude 10° 07:13:46 10° 59° (ENE) 2,600 8.2 -11.2°
Sets 07:16:48 0° 46° (NE) 3,562 8.8 -10.8°
